RH
69 60 61 58 55 61 66 76 88 84 75 69 64 68 66 64 59 69 67 55 59 47 44 52 39 47 49 56 55 66 92 97 85 81 72 53 54 41 38 45 40 50 70 87 95
83 62 56 57 60 55 65 76 83 90 76 72 65 70 67 63 71 66 54 43 46 43 56 45 46 49 57 55 61 77 96 85 67 66 66 56 57 53 46 46 49 45 38 55 91
82 77 65 63 61 55 61 72 82 82 79 70 67 71 69 68 65 64 45 42 50 56 57 45 43 45 54 50 56 70 85 68 57 52 53 58 55 46 49 52 46 43 42 46 70
84 72 68 55 59 60 61 68 79 86 77 69 68 72 69 72 73 64 42 45 44 41 41 42 43 54 59 57 48 53 46 44 48 50 50 44 39 38 41 38 35 40 45 49 50
83 74 70 55 57 60 64 70 79 82 75 69 71 71 66 64 84 57 51 46 41 42 43 46 53 56 60 64 53 58 55 54 55 57 55 48 48 44 39 36 35 39 43 50 51
88 77 66 58 60 63 71 72 79 86 72 70 72 68 65 79 59 61 58 49 41 51 57 52 56 54 65 66 65 66 64 60 57 55 54 53 45 49 40 37 33 34 38 44 51
78 73 66 60 63 70 79 77 86 75 69 71 71 61 56 75 53 58 46 48 44 49 57 55 54 56 65 67 64 66 68 62 57 54 55 52 61 51 34 38 38 32 37 40 49
69 64 63 65 68 77 83 84 80 76 72 70 67 62 66 44 60 49 42 46 45 46 50 52 52 60 64 69 68 75 78 81 56 57 54 59 64 49 44 42 42 38 35 39 47
66 65 65 67 72 86 88 85 83 85 71 69 74 61 66 40 47 44 44 50 50 50 55 43 58 74 74 86 85 78 88 86 73 60 64 70 80 60 51 48 50 45 40 41 44
66 66 67 84 89 88 82 78 79 74 68 57 57 53 59 54 46 43 41 50 58 65 67 72 86 93 94 94 90 87 93 86 90 63 61 68 75 60 53 55 56 49 43 47 53
80 83 76 84 88 86 81 81 84 77 70 74 74 60 55 50 45 49 47 51 57 64 88 88 96 98 86 89 82 84 90 87 72 61 71 76 75 63 53 60 62 58 46 45 56
83 87 83 88 81 84 86 86 88 71 73 63 59 55 49 52 60 57 50 66 74 90 86 84 93 79 76 80 85 94 86 78 70 64 71 70 72 61 61 61 57 61 51 55 63
83 85 83 89 84 85 90 94 84 69 72 67 60 60 59 56 67 65 55 67 80 84 84 92 76 72 81 80 82 81 80 77 85 75 76 83 88 69 72 64 61 57 57 66 71
84 80 76 76 80 93 98 94 85 66 92 79 69 65 60 66 80 65 65 73 86 81 85 88 77 85 90 88 81 78 63 70 82 94 97 68 94 75 87 90 80 87 85 67 71
77 79 81 78 92 97 96 93 85 58 94 63 74 59 66 76 75 79 73 81 94 89 90 83 94 85 92 85 73 81 60 74 96 98 99 91 96 78 89 89 87 84 90 92 93
82 80 81 89 93 96 93 86 67 80 86 76 74 76 80 71 72 77 78 75 83 94 88 96 77 86 86 71 61 57 74 86 94 99 99 82 92 94 97 96 91 83 90 95 97
80 80 84 82 98 94 87 71 85 88 56 74 82 81 82 77 76 82 90 96 98 98 91 85 86 87 83 92 80 89 100 98 97 97 94 100 98 99 97 93 91 90 90 95 95
79 82 83 87 96 91 74 78 88 68 71 63 72 77 83 76 77 83 90 95 94 92 96 91 83 91 84 91 99 100 100 99 98 97 94 89 98 100 95 89 88 88 90 92 96
78 95 94 90 93 84 71 94 85 77 69 71 68 81 76 67 69 81 95 86 80 90 91 96 90 65 72 78 86 92 100 96 100 96 94 98 96 96 92 94 90 89 90 96 97
95 95 90 89 92 81 90 82 80 67 69 68 75 69 75 74 76 79 84 75 77 70 79 82 94 73 66 72 85 85 80 98 98 97 95 93 98 98 98 99 98 96 94 93 90
94 88 82 91 85 85 94 86 72 58 67 71 77 74 75 78 78 80 79 71 74 74 82 83 89 78 69 74 77 80 81 83 74 90 95 95 97 98 100 99 98 94 86 78 68
93 90 81 88 87 95 89 82 72 69 68 71 70 69 76 72 78 78 79 71 69 77 83 79 84 96 74 71 70 72 78 76 91 74 92 89 96 78 83 85 82 63 57 52 53
95 94 86 81 93 93 78 70 71 73 73 69 68 64 65 72 78 76 72 61 70 74 77 76 86 91 57 54 64 76 69 74 76 79 91 87 88 60 73 79 67 62 57 50 47
89 92 91 89 93 85 87 70 65 67 72 66 66 62 64 66 67 74 69 62 66 67 68 66 82 76 81 67 76 80 70 77 80 92 91 90 83 79 82 75 73 64 54 52 50
90 91 88 94 83 85 87 80 72 70 69 67 67 73 80 77 77 80 76 68 60 64 76 67 75 83 72 73 72 66 67 76 84 83 80 79 87 79 80 78 74 60 52 47 50
92 93 94 90 86 80 79 81 72 68 76 70 76 74 80 80 79 80 81 79 79 66 74 69 73 82 80 68 63 61 59 65 77 82 82 83 78 65 74 76 71 67 56 52 52
96 89 84 81 83 82 82 80 74 78 71 72 80 82 76 74 76 74 72 73 75 79 74 73 79 86 83 71 61 56 60 62 70 75 75 85 69 71 78 70 71 70 61 55 57
Wind_Speed
9 8 7 7 6 5 6 10 7 16 14 11 8 6 4 3 4 3 3 3 2 4 5 3 6 4 4 4 4 3 2 3 3 4 3 3 6 5 3 1 5 3 1 6 10
8 6 7 5 7 5 5 7 13 14 14 11 7 8 6 2 3 4 5 4 5 5 5 6 5 4 4 3 3 4 3 5 3 2 3 5 2 3 3 4 3 5 8 3 4
7 8 5 5 5 5 5 5 7 15 15 12 9 9 7 2 3 3 3 5 7 5 3 3 3 3 4 3 3 1 4 3 3 5 6 5 6 2 3 6 4 5 9 10 1
9 12 6 3 2 6 8 4 9 18 17 13 11 10 7 0 3 3 2 5 9 7 6 6 6 4 3 1 4 3 3 3 5 6 5 6 7 6 8 7 6 6 6 8 11
10 9 5 1 2 6 7 6 9 22 18 14 14 11 3 5 2 4 7 7 8 7 6 4 6 2 2 2 5 2 4 6 7 7 7 7 8 9 15 7 9 8 7 8 10
5 8 6 1 4 6 8 9 5 19 17 14 14 9 3 6 3 5 7 5 8 8 6 6 3 2 3 3 1 4 5 8 6 7 5 9 14 6 5 5 13 9 11 9 9
7 6 4 3 5 8 11 11 11 21 16 15 11 2 8 5 1 5 4 2 3 5 5 3 3 5 1 4 4 5 8 8 4 3 4 6 9 17 9 9 15 17 9 10 11
2 1 1 4 6 12 20 26 21 17 16 13 5 3 5 3 3 5 5 4 6 5 4 3 6 4 3 2 7 5 2 5 4 5 6 5 12 8 9 5 13 15 12 11 10
3 4 4 5 3 10 25 23 21 19 13 7 6 5 4 3 3 2 4 3 4 4 5 4 4 3 5 4 5 3 4 4 8 2 4 5 10 6 11 14 19 18 15 10 11
3 2 4 7 17 25 24 20 22 13 5 3 3 6 2 2 3 2 3 5 3 3 4 5 5 3 3 4 3 4 4 5 6 6 8 17 25 21 20 15 16 16 15 9 9
10 8 11 17 18 25 17 9 5 6 8 3 2 5 5 3 4 3 3 4 2 5 2 3 5 5 5 4 3 3 4 12 15 13 12 14 18 24 18 12 15 13 16 11 11
18 27 27 21 17 12 3 4 2 6 8 5 4 5 4 3 4 2 2 3 3 1 2 3 6 7 7 6 5 5 12 16 17 13 5 14 22 24 21 17 15 12 13 10 7
21 25 24 22 8 4 5 4 3 1 7 4 2 4 2 2 3 3 3 2 3 2 2 4 6 3 4 8 9 9 11 14 13 8 12 11 11 4 5 5 2 6 8 6 10
9 14 10 3 4 2 4 6 5 2 7 6 4 3 2 2 5 1 3 2 1 2 2 6 4 4 6 10 8 10 8 13 15 9 4 3 8 5 7 6 8 7 7 9 9
9 9 14 10 3 4 4 5 4 5 8 5 1 0 2 3 5 1 2 2 1 1 0 6 3 5 9 8 8 9 4 8 13 8 5 4 4 8 7 10 18 14 11 9 5
12 10 11 5 4 2 5 5 5 8 1 3 2 1 1 3 4 3 1 2 1 2 6 10 4 5 7 4 10 10 12 10 5 1 3 3 6 4 9 12 14 9 9 8 8
16 15 8 3 2 8 4 4 7 8 3 2 3 3 1 2 4 4 2 1 3 2 3 4 5 5 5 5 4 5 2 4 4 4 5 4 4 2 14 18 11 6 7 10 11
8 8 5 4 4 2 3 7 11 1 4 1 3 3 3 5 4 4 2 3 7 6 3 3 8 7 7 7 3 2 1 2 4 2 4 2 7 4 12 16 9 7 10 8 13
6 3 3 6 6 3 6 7 7 4 1 0 2 1 3 4 4 3 5 4 5 8 4 2 7 4 6 4 4 2 1 1 4 2 3 3 2 3 14 15 15 14 16 12 12
3 3 2 6 4 5 6 3 1 3 2 1 1 3 2 1 2 3 3 4 4 7 4 4 7 3 5 4 4 3 1 3 3 4 3 4 3 5 13 14 11 13 13 14 15
4 4 4 6 3 5 5 3 2 3 3 1 1 1 2 1 1 1 2 4 3 3 3 3 1 8 2 1 2 4 3 3 3 1 2 4 4 4 6 8 9 8 4 6 8
3 4 3 4 6 2 2 1 0 2 2 1 1 1 1 2 3 1 3 5 4 1 2 1 1 5 8 2 2 3 3 2 3 3 3 2 3 3 5 6 3 4 7 8 9
3 2 3 3 5 4 4 3 2 2 2 2 1 2 1 1 1 2 2 2 1 2 2 0 2 6 11 6 4 4 3 3 1 3 1 3 4 1 3 5 3 5 6 6 6
4 4 6 5 2 3 5 4 4 3 2 2 2 2 3 3 3 2 5 2 4 1 2 2 2 4 6 6 3 6 5 4 1 3 3 4 2 1 3 5 3 3 4 4 6
4 2 4 2 4 2 2 3 4 5 3 4 2 3 2 2 3 2 2 6 3 5 3 2 2 1 6 8 5 4 4 6 2 3 3 4 5 6 6 6 5 4 2 5 6
3 3 1 2 2 4 4 1 2 4 3 4 2 4 2 2 3 3 1 0 2 6 4 3 2 3 5 4 6 6 7 4 2 1 4 5 5 6 5 4 4 3 3 4 4
1 2 3 1 2 3 3 4 2 2 1 1 2 3 4 2 3 5 4 4 5 2 2 2 2 4 5 6 8 7 6 5 3 4 7 6 6 5 5 6 5 5 3 3 1
Wind_Direction
262 278 289 278 293 301 295 309 257 191 172 163 163 157 122 42 358 30 54 239 208 356 33 360 38 15 51 59 35 94 40 256 238 170 248 357 31 332 319 355 309 318 72 297 327
274 285 277 266 287 289 313 311 301 190 162 148 160 145 124 74 54 28 267 68 60 28 47 56 29 42 41 44 30 106 162 224 234 338 301 297 300 316 315 308 260 322 317 356 60
254 242 264 275 295 297 307 326 338 165 157 157 150 145 121 94 86 320 282 81 78 36 50 64 43 62 65 29 18 135 207 219 279 290 331 294 306 260 241 259 182 283 294 315 342
223 241 239 179 317 294 292 272 289 172 161 156 147 139 120 123 110 276 85 97 61 56 49 41 35 50 76 39 340 332 267 345 311 344 331 306 306 281 222 239 230 234 252 300 304
247 254 263 201 264 290 280 259 305 170 151 149 141 139 142 59 106 273 84 72 43 51 52 51 49 57 94 339 345 234 327 325 318 298 290 283 265 260 262 304 279 273 268 251 283
232 289 267 323 303 303 296 261 249 142 141 140 139 139 98 81 310 93 89 38 57 57 39 46 78 83 67 25 21 325 287 285 279 275 258 270 269 240 66 309 276 245 257 255 245
178 260 275 350 321 319 275 204 174 125 132 135 139 130 64 128 68 99 83 63 58 80 69 29 62 66 56 350 349 322 325 323 294 295 284 277 269 250 271 261 270 277 243 241 243
336 252 77 359 358 345 114 111 113 116 124 123 100 75 78 335 146 91 74 47 70 75 87 85 68 85 51 350 2 346 17 332 298 335 266 173 268 289 280 271 277 277 270 239 238
100 102 53 360 334 104 112 110 107 102 109 106 47 86 99 58 102 128 112 102 57 34 29 84 49 69 28 68 359 357 268 268 311 306 281 197 292 258 281 281 274 269 263 241 243
44 42 72 36 109 114 108 113 92 89 61 32 74 62 333 169 133 116 66 96 90 71 25 47 46 61 28 84 230 251 304 276 254 285 307 290 281 274 262 257 248 255 260 244 235
337 252 158 104 102 110 109 103 67 46 41 66 131 78 107 113 69 58 93 83 62 50 35 32 47 250 251 218 268 297 268 286 279 271 286 269 271 278 281 249 245 234 254 242 240
67 99 119 110 111 45 30 79 52 156 76 37 77 71 82 91 84 67 73 77 56 16 40 2 268 237 234 225 238 254 279 283 289 273 247 273 278 286 287 272 247 231 242 240 247
90 102 109 115 106 38 65 71 10 109 91 19 19 76 71 98 89 160 114 110 68 310 228 238 245 246 288 285 252 249 251 263 258 301 264 280 280 295 282 317 250 239 240 231 234
71 100 96 89 71 327 37 334 360 49 83 336 30 45 52 80 56 66 56 77 185 312 325 258 248 262 276 269 224 286 234 248 262 282 281 68 292 297 331 358 32 345 293 265 245
92 72 42 39 127 58 311 327 354 51 68 282 26 246 65 78 159 121 44 59 233 189 120 265 264 266 254 237 159 234 183 270 257 259 294 183 255 279 356 346 340 332 328 322 237
69 63 7 19 46 7 321 332 40 45 3 321 80 72 91 173 177 120 97 34 348 275 222 253 247 259 237 276 228 251 289 270 258 221 261 195 185 315 347 321 313 315 313 320 336
62 71 65 35 351 321 341 36 35 77 271 266 170 174 232 199 183 191 154 209 244 330 314 247 226 248 197 269 251 224 316 313 338 5 246 340 207 350 325 316 290 324 17 40 38
17 6 58 69 289 320 55 49 64 242 204 219 150 173 211 159 243 192 198 273 230 235 287 315 331 194 165 206 181 182 250 310 307 308 291 316 338 14 348 351 35 44 34 51 57
42 352 21 340 346 54 71 53 179 212 239 67 83 190 259 225 185 181 212 236 239 182 199 256 273 272 196 157 147 67 337 294 269 230 11 294 303 188 6 5 11 32 23 26 52
81 46 323 313 335 56 74 126 240 212 310 169 114 201 291 323 155 174 205 226 266 216 169 281 292 232 308 102 208 215 194 296 313 333 355 331 3 7 350 357 355 26 5 26 42
62 48 257 336 72 47 97 209 235 245 198 167 126 292 273 336 5 196 257 273 231 287 181 306 170 290 347 218 116 342 324 250 269 183 341 334 358 6 344 344 18 12 28 36 51
84 41 302 5 52 27 63 243 294 326 32 3 61 270 317 353 3 246 249 228 207 305 278 253 198 275 245 202 78 192 279 272 109 306 60 98 330 315 343 291 284 64 57 53 46
67 279 318 76 74 1 311 315 300 38 40 39 337 38 337 291 260 237 258 261 212 238 267 167 344 326 344 12 37 64 327 293 295 14 40 125 226 80 187 265 66 83 43 32 39
88 28 330 46 140 98 5 338 348 339 322 3 294 35 352 8 19 312 336 307 333 300 283 99 118 163 192 242 277 308 338 336 127 97 175 231 174 220 178 156 130 95 83 58 45
36 186 186 337 347 49 56 304 339 356 354 21 88 67 284 295 318 345 295 320 324 14 82 92 264 151 263 257 275 278 306 1 79 183 160 210 188 233 214 194 183 164 96 47 30
102 127 4 160 295 358 343 18 353 319 19 338 37 325 8 236 225 252 278 134 262 324 25 358 289 20 286 324 333 292 298 326 24 129 47 126 254 206 206 182 186 190 115 58 33
150 29 87 271 140 118 240 286 306 4 269 159 300 332 313 266 255 242 232 252 239 315 307 32 66 38 274 342 327 314 232 209 260 196 152 200 246 162 196 211 208 211 178 161 146